Location: Unspecified
(0.0000°N, 0.0000°E)
Time: 06:25:04
(UTC+00:00)

Vanguard 2 Rocket - Pass Details

Date: 07 October 2023
Orbit: 552 x 3312 km, 32.9° (Epoch: 06 December)

Event Time Altitude Azimuth Distance (km) Brightness Sun altitude
Rises 09:00:59 0° 302° (WNW) 4,997 10.3 48.0°
Reaches altitude 10° 09:06:11 10° 323° (NW) 4,555 10.3 49.3°
Maximum altitude 09:13:17 16° 356° (N) 4,730 10.6 51.0°
Drops below altitude 10° 09:22:07 10° 27° (NNE) 5,807 11.3 53.2°
Sets 09:30:44 0° 47° (NE) 7,184 11.8 55.3°
